"Time","Temp","Dewpoint","Humidity","Pressure","Direction","Speed","Gust","Precip","PrecipRate"
"00:04:58","39.5","23","51.4","29.98","292","4.1","12","0.00","0.00"
"00:09:59","39.4","22.9","51.2","29.98","285","4.3","11.5","0.00","0.00"
"00:14:58","39.2","22.8","51.5","29.98","293","4.6","17.3","0.00","0.00"
"00:19:58","39.1","22.9","52","29.98","279","5.7","15.6","0.00","0.00"
"00:24:59","39.1","22.8","51.8","29.98","250","4.7","16.1","0.00","0.00"
"00:29:57","38.9","22.9","52.2","29.98","256","3.6","8.4","0.00","0.00"
"00:34:58","38.7","22.6","52","29.98","274","3.7","8.1","0.00","0.00"
"00:39:59","38.7","22.7","52.5","29.98","332","6","17.3","0.00","0.00"
"00:44:56","38.5","22.9","53.3","29.99","333","4.9","13.2","0.00","0.00"
"00:49:58","38.2","23","54","29.99","326","5.5","12.7","0.00","0.00"
"00:54:59","38","23.2","54.9","29.99","307","4.5","10.8","0.00","0.00"
"00:59:56","37.8","23.2","55.3","30.00","304","5.1","9.6","0.00","0.00"
"01:04:57","37.5","22.9","55.2","30.00","326","5.4","13.2","0.00","0.00"
"01:09:59","37.5","22.7","54.8","30.00","317","5.1","12.7","0.00","0.00"
"01:14:56","37.4","22.7","55","30.01","323","4.2","7.2","0.00","0.00"
"01:19:57","37.3","22.6","55","30.01","316","3.3","8.4","0.00","0.00"
"01:24:58","37.2","22.4","54.8","30.01","308","4","12","0.00","0.00"
"01:29:56","37.1","21.9","53.8","30.01","313","5.5","16.1","0.00","0.00"
"01:34:57","37.1","20.6","50.8","30.01","313","5.8","17.3","0.00","0.00"
"01:39:59","37","20.1","50","30.01","285","5.8","18.4","0.00","0.00"
"01:44:56","37.1","19.3","48.3","30.01","301","5.4","13.2","0.00","0.00"
"01:49:57","37","18.7","47.2","30.01","299","4.9","13.2","0.00","0.00"
"01:54:58","37","18.5","46.7","30.01","317","6.2","15","0.00","0.00"
"01:59:59","36.9","18","45.8","30.01","304","8.8","24.2","0.00","0.00"
"02:04:59","36.9","17.7","45.5","30.01","313","7.2","19.6","0.00","0.00"
"02:09:57","36.7","17.7","45.8","30.01","330","8.6","21.9","0.00","0.00"
"02:14:59","36.5","17.5","45.7","30.02","312","5.5","16.1","0.00","0.00"
"02:19:56","36.2","17.4","46","30.02","283","3.7","12","0.00","0.00"
"02:24:57","35.9","17","45.8","30.02","318","4.6","12","0.00","0.00"
"02:29:58","35.6","16.7","45.8","30.04","273","4.1","10.8","0.00","0.00"
"02:34:59","35.2","16.5","45.9","30.04","91","5.3","16.8","0.00","0.00"
"02:39:57","34.9","16.1","45.7","30.04","344","5.6","20.7","0.00","0.00"
"02:44:58","34.6","15.8","45.8","30.04","354","7.8","18.4","0.00","0.00"
"02:49:59","34.3","15.6","46","30.04","336","7.3","18.4","0.00","0.00"
"02:54:57","34.1","15.5","46","30.04","328","7","20.7","0.00","0.00"
"02:59:58","33.9","15.3","46","30.05","330","8.5","27.6","0.00","0.00"
"03:04:56","33.8","15.2","46","30.05","328","7","18.4","0.00","0.00"
"03:09:58","33.6","15.2","46.5","30.05","318","5.9","17.3","0.00","0.00"
"03:14:56","33.5","15.3","46.9","30.05","318","6.1","15.6","0.00","0.00"
"03:19:57","33.3","15.3","47.2","30.05","319","5.7","13.2","0.00","0.00"
"03:24:56","33.1","15","47","30.05","324","5.6","16.1","0.00","0.00"
"03:29:59","32.9","15","47.5","30.05","326","5.5","10.8","0.00","0.00"
"03:34:56","32.6","14.9","47.5","30.05","328","8.3","16.1","0.00","0.00"
"03:39:58","32.4","14.9","48","30.05","320","8.1","19.6","0.00","0.00"
"03:44:59","32.1","14.6","48","30.05","312","7.7","20.4","0.00","0.00"
"03:49:58","31.8","14.4","48.2","30.05","297","7.3","22.8","0.00","0.00"
"03:54:58","31.6","14.1","48","30.05","309","7.9","23","0.00","0.00"
"03:59:59","31.4","13.9","48","30.05","321","7.5","15.6","0.00","0.00"
"04:04:56","31.2","13.8","48.2","30.05","321","7.2","15.6","0.00","0.00"
"04:09:58","31.1","13.7","48","30.05","329","8.9","20.7","0.00","0.00"
"04:14:59","30.9","13.5","48","30.05","320","9.5","25.3","0.00","0.00"
"04:19:57","30.7","13.6","48.5","30.05","293","4.1","15","0.00","0.00"
"04:24:58","30.6","13.7","49","30.05","309","4","14.4","0.00","0.00"
"04:29:59","30.4","13.5","49","30.07","313","5","15","0.00","0.00"
"04:34:56","30.2","13.3","49","30.07","318","7.2","25.3","0.00","0.00"
"04:39:57","30.1","13.2","49.1","30.07","326","6.9","15","0.00","0.00"
"04:44:58","29.8","12.8","48.8","30.08","336","9.2","20.7","0.00","0.00"
"04:49:59","29.5","12.2","48","30.08","324","10.2","28.8","0.00","0.00"
"04:54:56","29.2","11.9","48","30.08","333","11.3","20.7","0.00","0.00"
"04:59:57","29","11.5","47.5","30.08","321","10.2","21.9","0.00","0.00"
"05:04:58","28.8","11.3","47.3","30.08","314","8.9","21.9","0.00","0.00"
"05:09:56","28.8","11.4","47.7","30.08","318","9.8","25.3","0.00","0.00"
"05:14:58","28.7","11.5","48","30.09","334","8.6","21.9","0.00","0.00"
"05:19:59","28.7","11.5","48","30.09","328","10.3","21.9","0.00","0.00"
"05:24:56","28.5","11.3","48.1","30.09","329","9.9","37.2","0.00","0.00"
"05:29:57","28.4","10.3","46.3","30.10","331","12.2","36.8","0.00","0.00"
"05:34:59","28.2","10","46","30.10","336","11.9","29.9","0.00","0.00"
"05:39:56","28.1","10","46.3","30.10","316","9.4","25.3","0.00","0.00"
"05:44:57","27.9","10.5","47.5","30.11","328","5.9","15.6","0.00","0.00"
"05:49:59","27.8","10.9","48.6","30.11","330","9.5","28.8","0.00","0.00"
"05:54:56","27.5","11","49.3","30.11","327","9.3","24","0.00","0.00"
"05:59:57","27.3","11","49.8","30.12","326","10","24.2","0.00","0.00"
"06:04:57","27.1","10.4","49","30.12","321","10.4","21.9","0.00","0.00"
"06:09:56","26.9","9.9","48.2","30.12","307","10.9","27.6","0.00","0.00"
"06:14:58","26.7","9.4","47.7","30.12","317","9.3","26.5","0.00","0.00"
"06:19:58","26.5","7.6","44.2","30.12","297","8.3","23","0.00","0.00"
"06:24:59","26.3","6.8","43.2","30.12","324","9.5","19.6","0.00","0.00"
"06:29:56","26.1","6.5","42.8","30.14","297","5.7","19.6","0.00","0.00"
"06:34:57","25.8","6","42.3","30.14","324","8.1","19.6","0.00","0.00"
"06:39:59","25.7","6.2","43","30.14","300","4.1","8.4","0.00","0.00"
"06:44:56","25.4","5.9","42.8","30.15","296","5.7","25.3","0.00","0.00"
"06:49:57","25.2","5.9","43.2","30.15","268","3.2","11.5","0.00","0.00"
"06:54:59","25","5.3","42.4","30.15","307","5.6","12","0.00","0.00"
"06:59:59","25","4.6","41","30.16","314","7","21.9","0.00","0.00"
"07:04:59","24.9","4.6","41.1","30.16","316","5.2","13.2","0.00","0.00"
"07:09:57","24.7","4.4","41.2","30.16","315","5.5","15","0.00","0.00"
"07:14:59","24.7","4.6","41.7","30.16","316","7.4","18.4","0.00","0.00"
"07:19:57","24.6","4.7","42","30.16","325","4.8","15","0.00","0.00"
"07:24:58","24.5","4.7","42.2","30.16","300","3.9","10.8","0.00","0.00"
"07:29:55","24.5","4.9","42.5","30.17","314","5.7","19.2","0.00","0.00"
"07:34:57","24.5","4.9","42.4","30.17","308","7.2","19.6","0.00","0.00"
"07:39:58","24.6","5","42.6","30.17","326","6.4","16.1","0.00","0.00"
"07:44:58","24.6","5.2","42.8","30.17","324","6.1","13.2","0.00","0.00"
"07:49:59","24.7","5.3","42.8","30.17","323","7.1","13.2","0.00","0.00"
"07:54:56","25","5.6","43","30.17","314","4.6","12","0.00","0.00"
"07:59:59","25.2","5.4","42.2","30.17","307","5.9","13.2","0.00","0.00"
"08:04:59","25.5","5.6","42","30.17","308","5.7","12","0.00","0.00"
"08:09:58","25.7","5.9","42.3","30.17","324","5.2","13.2","0.00","0.00"
"08:14:59","26","6.2","42.4","30.18","286","5.6","21.6","0.00","0.00"
"08:19:56","26.1","5.9","41.7","30.18","298","5.9","21.9","0.00","0.00"
"08:24:56","26.3","5.8","41","30.18","302","6.4","18","0.00","0.00"
"08:29:56","26.3","5.7","40.9","30.18","286","7.7","18","0.00","0.00"
"08:34:56","26.3","5.6","40.7","30.18","310","9.8","20.7","0.00","0.00"
"08:39:57","26.5","5.9","40.9","30.18","326","7.9","25.2","0.00","0.00"
"08:44:58","26.8","6.1","40.9","30.20","318","8.3","25.3","0.00","0.00"
"08:49:59","27.1","6.5","41","30.20","303","6.4","17.3","0.00","0.00"
"08:54:59","27.5","6.6","40.5","30.20","323","7.8","17.3","0.00","0.00"
"08:59:59","27.8","7.5","41.7","30.20","295","5.3","17.3","0.00","0.00"
"09:04:59","28.1","7.3","40.9","30.20","292","7","16.1","0.00","0.00"
"09:09:57","28","7","40.3","30.20","299","8","17.3","0.00","0.00"
"09:14:58","27.8","6.7","40.2","30.20","311","7.5","16.1","0.00","0.00"
"09:19:59","28","7.3","40.8","30.20","291","6.2","16.1","0.00","0.00"
"09:24:59","28.5","7.6","40.7","30.20","298","6.7","16.1","0.00","0.00"
"09:29:56","28.6","7.3","40","30.20","311","7.2","19.6","0.00","0.00"
"09:34:56","28.5","7.5","40.6","30.20","325","7.7","17.3","0.00","0.00"
"09:39:56","28.8","7.7","40.4","30.20","329","7.7","21.6","0.00","0.00"
"09:44:57","28.7","7.3","40","30.21","322","8.3","21.9","0.00","0.00"
"09:49:57","29","7.9","40.4","30.21","301","6.8","19.6","0.00","0.00"
"09:54:58","29.5","8.4","40.5","30.21","309","7.6","20.7","0.00","0.00"
"09:59:58","30","8.6","40.1","30.21","319","6.5","17.3","0.00","0.00"
"10:04:58","29.9","8.3","39.6","30.21","341","8.7","21.9","0.00","0.00"
"10:09:57","29.6","8.5","40.6","30.21","299","6.8","15","0.00","0.00"
"10:10:17","30.1","8.7","40","30.21","174","4.4","11.5","0.00","0.00"
"10:24:59","30.6","9.2","40.3","30.21","315","8.5","21.6","0.00","0.00"
"10:28:54","30.6","9.5","40.6","30.21","310","6.4","21.9","0.00","0.00"
"10:34:57","30.6","9.1","40","30.21","328","10.5","25.3","0.00","0.00"
"10:39:59","30.9","9.6","40.4","30.21","303","6.9","18.4","0.00","0.00"
"10:44:57","31.2","9.7","40.2","30.22","328","7.9","21.9","0.00","0.00"
"10:49:56","30.9","9","39.4","30.22","339","9.9","24","0.00","0.00"
"10:54:58","31.6","10.4","40.7","30.22","273","6.2","18.4","0.00","0.00"
"10:59:57","32.3","11","40.8","30.22","271","6","16.1","0.00","0.00"
"11:04:58","33.1","10.9","39.2","30.22","320","7","20.7","0.00","0.00"
"11:09:58","33.3","12.4","41.4","30.22","232","5.8","14.4","0.00","0.00"
"11:14:57","33.1","11.3","39.9","30.22","251","9.1","19.2","0.00","0.00"
"11:19:59","33.2","10.9","39.1","30.22","285","6.9","17.3","0.00","0.00"
"11:24:59","33.1","11.6","40.3","30.22","320","5.9","18.4","0.00","0.00"
"11:29:58","33.9","12","39.9","30.22","305","8.6","20.4","0.00","0.00"
"11:34:58","33.3","11.1","39.2","30.22","333","9.9","20.7","0.00","0.00"
"11:39:58","32.6","10.7","39.7","30.22","326","7.1","18","0.00","0.00"
"11:44:57","33.1","10.8","39.2","30.22","321","9.4","25.3","0.00","0.00"
"11:49:57","33.9","12.1","40.1","30.22","329","7.9","18.4","0.00","0.00"
"11:54:56","33.8","11.4","39","30.22","332","9.8","21.6","0.00","0.00"
"11:59:56","34.5","13","40.7","30.22","258","8.8","23","0.00","0.00"
"12:04:56","34.4","12.4","39.8","30.21","302","9","21.6","0.00","0.00"
"12:09:59","35.1","13.5","40.7","30.21","289","7.4","21.9","0.00","0.00"
"12:14:59","34.2","12","39.5","30.21","318","9","19.6","0.00","0.00"
"12:19:59","35.1","13.6","40.8","30.21","319","6.5","23","0.00","0.00"
"12:24:59","36","13.9","39.8","30.21","294","7.1","18.4","0.00","0.00"
"12:29:59","36.6","14.5","40.1","30.21","264","4.7","15.6","0.00","0.00"
"12:34:59","35.6","12.4","38","30.21","310","9.9","28.8","0.00","0.00"
"12:39:56","35.4","13.1","39.5","30.21","324","9.6","18.4","0.00","0.00"
"12:44:56","36.1","13.7","39.4","30.21","303","7.5","24.2","0.00","0.00"
"12:49:56","36.7","14.3","39.6","30.21","322","7.3","20.7","0.00","0.00"
"12:54:59","37.6","15.2","39.7","30.21","317","6.5","16.8","0.00","0.00"
"12:59:59","36.9","13.8","38.3","30.21","320","9.1","19.6","0.00","0.00"
"13:04:56","36.4","13.2","38","30.21","333","8.7","18.4","0.00","0.00"
"13:09:59","36.4","13.9","39.2","30.21","313","9","24.2","0.00","0.00"
"13:14:57","37.2","14.2","38.5","30.21","291","8.4","21.9","0.00","0.00"
"13:19:57","36.8","13.4","37.8","30.20","325","8.6","21.9","0.00","0.00"
"13:24:58","37.9","15","38.9","30.20","317","9.1","26.5","0.00","0.00"
"13:29:59","37.4","14.3","38.3","30.20","334","7.9","20.7","0.00","0.00"
"13:34:59","38.1","15","38.6","30.20","301","7","16.8","0.00","0.00"
"13:39:56","37.8","14.1","37.5","30.20","272","8.4","18","0.00","0.00"
"13:44:57","37.9","15.3","39.3","30.20","261","8.5","23","0.00","0.00"
"13:48:38","38.5","15.3","38.5","30.20","262","8","15","0.00","0.00"
"13:54:56","38.8","15.8","38.8","30.20","253","7.3","18","0.00","0.00"
"13:59:58","38.7","14.6","37","30.20","298","7.1","18.4","0.00","0.00"
"14:04:56","38","15.1","38.8","30.19","339","6.9","24","0.00","0.00"
"14:09:59","38.2","13.8","36.4","30.19","344","11.2","24.2","0.00","0.00"
"14:14:57","38.4","14.5","37.3","30.19","303","7.4","18.4","0.00","0.00"
"14:19:59","39.3","15.7","37.9","30.18","357","6.9","18.4","0.00","0.00"
"14:24:57","39.1","14.6","36.4","30.18","324","8.4","22.8","0.00","0.00"
"14:29:56","38.1","13.6","36.2","30.18","336","10.4","19.6","0.00","0.00"
"14:34:57","38.8","15.2","37.9","30.18","310","9.2","20.7","0.00","0.00"
"14:39:56","39","14.4","36.2","30.18","304","9.2","20.7","0.00","0.00"
"14:44:57","39.6","15.4","36.9","30.18","320","7.1","17.3","0.00","0.00"
"14:49:59","39.7","14.8","35.8","30.17","333","9.6","23","0.00","0.00"
"14:54:56","39.9","15","35.8","30.17","317","8","17.3","0.00","0.00"
"14:59:59","40.9","16.2","36.5","30.17","270","6","15","0.00","0.00"
"15:04:58","40.5","15.6","35.9","30.17","332","6.8","21.6","0.00","0.00"
"15:09:57","40.5","15.7","36.1","30.17","320","8.2","21.9","0.00","0.00"
"15:14:59","42.2","17.6","36.9","30.17","304","6.2","21.6","0.00","0.00"
"15:19:57","40.7","14.1","33.5","30.17","334","11.9","28.8","0.00","0.00"
"15:24:58","40.3","15.3","35.9","30.17","281","9.6","28.8","0.00","0.00"
"15:29:56","40.1","14.6","35.1","30.17","299","8.2","20.7","0.00","0.00"
"15:34:57","40.6","15.7","36.1","30.17","283","6.8","16.1","0.00","0.00"
"15:39:59","40.3","14.5","34.6","30.17","334","8.4","19.6","0.00","0.00"
"15:44:56","41.1","15.6","35.3","30.17","324","7.9","18.4","0.00","0.00"
"15:49:58","40.5","14.8","34.7","30.17","298","7.3","16.8","0.00","0.00"
"15:54:56","40.8","16.1","36.3","30.17","297","8.4","19.6","0.00","0.00"
"15:59:57","40.9","15.8","35.7","30.17","280","7.6","17.3","0.00","0.00"
"16:04:58","41.1","15.2","34.6","30.17","309","8.4","24","0.00","0.00"
"16:09:57","41.3","15.3","34.5","30.17","307","9.6","24.2","0.00","0.00"
"16:14:59","41.3","15.3","34.5","30.18","335","9","28.8","0.00","0.00"
"16:19:56","40.6","14.2","33.8","30.18","304","8.9","20.7","0.00","0.00"
"16:24:58","40.3","14.8","35","30.18","279","7","17.3","0.00","0.00"
"16:29:59","41.4","16","35.3","30.18","266","7.9","17.3","0.00","0.00"
"16:34:57","41.9","14.8","33","30.18","294","6","15","0.00","0.00"
"16:39:56","41.2","13.8","32.3","30.18","333","10.3","20.7","0.00","0.00"
"16:44:57","41","14","32.8","30.19","317","9.9","19.6","0.00","0.00"
"16:49:58","41.4","15.1","34","30.19","315","7.3","18.4","0.00","0.00"
"16:54:56","41.7","15","33.5","30.19","271","7.3","17.3","0.00","0.00"
"16:59:58","41.6","15","33.6","30.19","288","4.3","13.2","0.00","0.00"
"17:04:58","42.1","15.1","33.1","30.19","297","7.4","23","0.00","0.00"
"17:09:57","41.3","14.1","32.8","30.19","266","6.8","17.3","0.00","0.00"
"17:14:59","41","14.2","33.3","30.20","302","7.5","18.4","0.00","0.00"
"17:19:56","41.2","14","32.7","30.20","300","6.6","17.3","0.00","0.00"
"17:24:58","41.2","14.4","33.3","30.20","292","6.1","15","0.00","0.00"
"17:29:56","40.8","13.1","31.9","30.20","301","8.6","23","0.00","0.00"
"17:34:57","40.8","14","33.2","30.20","300","6.5","19.6","0.00","0.00"
"17:39:58","40.7","14","33.3","30.20","321","8.5","21.9","0.00","0.00"
"17:44:59","40.4","13.5","33","30.20","329","8","20.4","0.00","0.00"
"17:49:56","40.6","13.6","32.9","30.19","320","8.5","20.7","0.00","0.00"
"17:54:58","40.3","13.2","32.7","30.19","318","8.2","18","0.00","0.00"
"17:59:56","40","13.1","32.9","30.20","280","6.1","16.1","0.00","0.00"
"18:04:56","40.2","13.5","33.3","30.20","326","6","17.3","0.00","0.00"
"18:09:55","40.3","13.8","33.5","30.20","305","4.8","13.2","0.00","0.00"
"18:14:57","40.1","13.2","32.9","30.21","306","7.2","17.3","0.00","0.00"
"18:19:59","39.7","13.2","33.4","30.21","283","5.7","16.1","0.00","0.00"
"18:24:56","39.4","12.6","33","30.21","317","5.8","16.1","0.00","0.00"
"18:29:58","39.1","12.4","33","30.21","297","6.9","16.1","0.00","0.00"
"18:34:59","38.7","12.6","33.8","30.21","285","5.9","18.4","0.00","0.00"
"18:39:56","38.3","12.3","33.9","30.21","298","6.4","18.4","0.00","0.00"
"18:44:57","38.1","12.3","34.2","30.22","318","7.2","16.1","0.00","0.00"
"18:49:59","37.8","12.5","34.8","30.22","317","6","13.2","0.00","0.00"
"18:54:56","37.6","12.7","35.4","30.22","323","5.4","17.3","0.00","0.00"
"18:59:58","37.3","12.7","35.9","30.23","267","5.2","14.4","0.00","0.00"
"19:04:59","37.1","12.1","35.2","30.23","297","6.4","13.2","0.00","0.00"
"19:09:58","37","12.5","36","30.23","309","4","12.7","0.00","0.00"
"19:14:57","36.8","12.5","36.3","30.23","294","4.9","15","0.00","0.00"
"19:19:59","36.6","12.1","36","30.22","302","4.5","12","0.00","0.00"
"19:24:57","36.5","12.1","36.2","30.22","284","4","11.5","0.00","0.00"
"19:29:59","36.4","11.9","36","30.24","284","2.9","7.2","0.00","0.00"
"19:34:57","36.2","12.3","36.8","30.24","323","2.1","7.2","0.00","0.00"
"19:39:59","36","12.2","37","30.24","297","4.1","12","0.00","0.00"
"19:44:58","35.7","12.2","37.5","30.25","316","3.8","7.2","0.00","0.00"
"19:49:59","35.6","12.4","37.8","30.25","310","3.9","8.4","0.00","0.00"
"19:54:57","35.5","12.3","37.8","30.25","309","4.8","12","0.00","0.00"
"19:59:59","35.5","12.4","38","30.25","306","4.5","11.5","0.00","0.00"
"20:04:56","35.3","12.2","38","30.25","306","4.1","10.8","0.00","0.00"
"20:09:59","35.2","12.3","38.3","30.25","295","2.3","6.9","0.00","0.00"
"20:14:57","35.1","12.3","38.6","30.25","260","2.3","8.4","0.00","0.00"
"20:19:59","34.8","12.6","39.5","30.25","251","1.6","6","0.00","0.00"
"20:24:57","34.6","12.1","39","30.25","291","2.8","6","0.00","0.00"
"20:29:59","34.6","12.3","39.3","30.26","313","2.7","6","0.00","0.00"
"20:34:57","34.5","12.5","39.9","30.26","312","3.2","7.2","0.00","0.00"
"20:39:56","34.4","12.4","39.8","30.26","318","3.2","6","0.00","0.00"
"20:44:58","34.3","12.5","40.2","30.26","318","2.6","6","0.00","0.00"
"20:49:56","34.1","12.7","40.7","30.26","333","1.4","5.8","0.00","0.00"
"20:54:58","33.8","13","41.7","30.26","299","1.3","4.8","0.00","0.00"
"20:59:57","33.5","12.7","41.6","30.27","250","1.1","3.6","0.00","0.00"
"21:04:58","33.5","12.8","42","30.27","279","1.6","6","0.00","0.00"
"21:09:57","33.4","12.7","42","30.27","292","2.3","4.8","0.00","0.00"
"21:14:59","33.3","12.7","42.2","30.28","300","3.5","7.2","0.00","0.00"
"21:19:57","33.3","12.7","42.2","30.28","312","3","6.9","0.00","0.00"
"21:24:59","33.2","13.1","43","30.28","303","1.9","3.6","0.00","0.00"
"21:29:58","33","12.9","43","30.29","305","0.5","3.5","0.00","0.00"
"21:34:56","32.8","12.7","43","30.29","232","1.4","3.6","0.00","0.00"
"21:39:59","32.7","12.8","43.3","30.29","226","1.3","3.6","0.00","0.00"
"21:44:57","32.6","13.2","44.2","30.29","228","1.5","4.8","0.00","0.00"
"21:49:56","32.4","13","44.2","30.29","236","1","7.2","0.00","0.00"
"21:54:58","32.6","12.9","43.6","30.29","321","2.1","7.2","0.00","0.00"
"21:59:57","32.8","12.7","43","30.30","298","2.2","4.8","0.00","0.00"
"22:04:58","32.9","13","43.4","30.30","293","3","10.8","0.00","0.00"
"22:09:57","33.1","13","43","30.30","302","1.6","6.9","0.00","0.00"
"22:14:55","32.9","13.2","43.8","30.30","262","1","4.8","0.00","0.00"
"22:19:58","32.6","13.1","44","30.30","259","0.8","3.6","0.00","0.00"
"22:24:56","32.5","13","44","30.30","258","1.4","3.6","0.00","0.00"
"22:29:59","32.4","13.1","44.3","30.31","257","1.5","6","0.00","0.00"
"22:34:57","32.4","13.2","44.7","30.31","265","1.9","5.8","0.00","0.00"
"22:39:59","32.3","13.3","45","30.31","264","1","3.6","0.00","0.00"
"22:44:58","32.2","13.2","45","30.31","261","1","2.4","0.00","0.00"
"22:49:59","32.1","13.1","45","30.31","259","0.3","2.4","0.00","0.00"
"22:54:58","32.1","13.1","45","30.31","299","3.7","12","0.00","0.00"
"22:59:56","32.3","13.4","45.2","30.31","302","3.7","6.9","0.00","0.00"
"23:04:57","32.2","13.4","45.4","30.31","308","3","6","0.00","0.00"
"23:09:56","32.1","13.6","46","30.31","308","3.3","6","0.00","0.00"
"23:14:59","32","13.5","46","30.31","303","3.4","7.2","0.00","0.00"
"23:19:57","31.9","13.6","46.5","30.30","302","3.5","10.8","0.00","0.00"
"23:24:59","31.9","13.4","46","30.30","321","5.6","17.3","0.00","0.00"
"23:29:57","32.1","13.6","45.9","30.30","325","5.3","16.1","0.00","0.00"
"23:34:59","32.3","13.6","45.8","30.29","324","4.1","16.1","0.00","0.00"
"23:39:57","32.2","13.6","45.8","30.29","27","1.8","6","0.00","0.00"
"23:44:59","32","13.5","46","30.30","46","0.8","4.6","0.00","0.00"
"23:49:57","31.9","13.5","46.3","30.30","1","1.8","7.2","0.00","0.00"
"23:54:59","31.8","13.6","46.5","30.30","310","3.2","6.9","0.00","0.00"
